Location: Unspecified
(47.7467°N, 8.8467°E)
Time: 03:57:18
(UTC+01:00)

ISS - Visible Passes

Search period start: 19 January 2026 00:00
Search period end: 29 January 2026 00:00
Orbit: 413 x 424 km, 51.6° (Epoch: 18 January)

Date Brightness Start Highest point End Pass type
(mag) Time Alt. Az. Time Alt. Az. Time Alt. Az.
19 Jan -3.1 18:40:06 10° W 18:43:20 44° N 18:44:17 34° NE visible
20 Jan -3.3 17:52:08 10° W 17:55:24 52° NNW 17:58:23 12° ENE visible
20 Jan -2.0 19:29:21 10° WNW 19:31:20 29° NW 19:31:20 29° NW visible
21 Jan -3.0 18:41:24 10° WNW 18:44:36 40° N 18:45:26 33° NE visible
21 Jan -0.2 20:18:18 10° WNW 20:18:23 10° WNW 20:18:23 10° WNW visible
22 Jan -3.0 17:53:25 10° WNW 17:56:36 41° N 17:59:33 12° ENE visible
22 Jan -2.2 19:30:26 10° WNW 19:32:30 33° NW 19:32:30 33° NW visible
23 Jan -3.4 18:42:30 10° WNW 18:45:46 48° NNE 18:46:37 37° ENE visible
23 Jan -0.3 20:19:19 10° WNW 20:19:34 12° WNW 20:19:34 12° WNW visible
24 Jan -3.2 17:54:32 10° WNW 17:57:44 42° N 18:00:48 11° ENE visible
24 Jan -2.6 19:31:21 10° WNW 19:33:45 43° WNW 19:33:45 43° WNW visible
25 Jan -3.9 18:43:23 10° WNW 18:46:45 74° NNE 18:47:59 36° E visible
25 Jan -0.4 20:20:30 10° W 20:20:56 12° W 20:20:56 12° W visible
26 Jan -3.6 17:55:25 10° WNW 17:58:43 57° NNE 18:02:01 10° E visible
26 Jan -2.4 19:32:18 10° WNW 19:35:16 36° SW 19:35:16 36° SW visible
27 Jan -3.2 18:44:13 10° WNW 18:47:30 56° SSW 18:49:43 19° SE visible
28 Jan -3.7 17:56:10 10° WNW 17:59:30 82° SSW 18:02:51 10° ESE visible
28 Jan -1.1 19:33:41 10° W 19:35:51 16° SW 19:37:20 13° SSW visible
